This demonstration page uses our WeatherBlox Daily Observations layout. Learn more.

Left ArrowRight Arrow

44.8408, -93.29828

Hourly Observations for July 25, 2017

Temp ( °F °C ) Dew Point ( °F °C ) Humidity (%) Winds ( mph kmh ) Pressure ( in mb ) Visibility ( mi km ) Precip ( " mm )
12:53 am 00:53 Cloudy 68 20 60 15.6 76 76 SSE 13 20 30.02 1017 10 16 0.00 0.00
1:53 am 01:53 Cloudy with Light Rain 68 20 60 15.6 76 76 S 12 19 30.04 1017 10 16 0.00 0.03
2:53 am 02:53 Cloudy 68 20 59 15 73 73 SSE 13 20 30.03 1017 10 16 0.00 0.03
3:53 am 03:53 Cloudy 67 19.4 59 15 76 76 SSE 10 17 30.02 1017 10 16 0.00 0.00
4:53 am 04:53 Cloudy 68 20 59 15 73 73 SE 16 26 30.01 1016 10 16 0.00 0.00
5:05 am 05:05 Cloudy 67 19.4 59 15 76 76 SSE 8 13 30.00 1016 10 16 0.00 0.00
5:53 am 05:53 Cloudy 67 19.4 60 15.6 79 79 S 7 11 30.03 1017 10 16 0.00 0.03
6:53 am 06:53 Cloudy 68 20 61 16.1 78 78 S 13 20 30.03 1017 10 16 0.00 0.00
7:53 am 07:53 Cloudy 68 20 62 16.7 81 81 SE 8 13 30.02 1017 10 16 0.00 0.03
8:31 am 08:31 Cloudy with Nearby Thunderstorms 69 20.6 63 17.2 81 81 SE 10 17 29.97 1015 10 16 0.00 0.00
8:45 am 08:45 Cloudy 69 20.6 63 17.2 81 81 SSE 15 24 29.97 1015 10 16 0.00 0.00
8:53 am 08:53 Cloudy 69 20.6 62 16.7 78 78 SSE 20 31 29.99 1016 10 16 0.00 0.00
9:53 am 09:53 Mostly Cloudy 72 22.2 65 18.3 79 79 S 17 28 29.98 1015 10 16 0.00 0.00
10:53 am 10:53 Partly Cloudy 77 25 65 18.3 66 66 S 14 22 29.98 1015 10 16 0.00 0.00
11:53 am 11:53 Partly Cloudy 79 26.1 64 17.8 60 60 S 20 31 29.97 1015 10 16 0.00 0.00
12:53 pm 12:53 Mostly Cloudy 78 25.6 64 17.8 62 62 S 21 33 29.97 1015 10 16 0.00 0.00
1:53 pm 13:53 Mostly Cloudy 79 26.1 66 18.9 65 65 S 16 26 29.96 1014 10 16 0.00 0.00
2:53 pm 14:53 Mostly Cloudy 81 27.2 67 19.4 62 62 S 13 20 29.95 1014 10 16 0.00 0.00
3:40 pm 15:40 Cloudy 82 27.8 68 20 63 63 S 15 24 29.91 1013 10 16 0.00 0.00
3:53 pm 15:53 Cloudy 81 27.2 69 20.6 67 67 SSE 10 17 29.94 1014 10 16 0.00 0.00
4:35 pm 16:35 Cloudy 81 27.2 70 21.1 69 69 SE 7 11 29.91 1013 10 16 0.00 0.00
4:53 pm 16:53 Cloudy 82 27.8 71 21.7 69 69 SSE 8 13 29.92 1013 10 16 0.00 0.00
5:39 pm 17:39 Cloudy with Nearby Thunderstorms 83 28.3 71 21.7 67 67 SSE 7 11 29.88 1012 10 16 0.00 0.00
5:53 pm 17:53 Cloudy with Nearby Thunderstorms 84 28.9 70 21.1 63 63 VRB 7 11 29.92 1013 10 16 0.00 0.00
6:21 pm 18:21 Cloudy with Thunderstorms 83 28.3 72 22.2 70 70 VRB 6 9 29.91 1013 7 11 0.02 0.51
6:39 pm 18:39 Cloudy with Light Rain 81 27.2 73 22.8 77 77 S 10 17 29.91 1013 8 13 0.09 2.29
6:49 pm 18:49 Cloudy with Thunderstorms 82 28 73 23 74 74 S 8 13 29.91 1013 2 3 0.09 2.29
6:50 pm 18:50 Cloudy with Strong Thunderstorms 82 28 73 23 74 74 S 8 13 29.91 1013 2 2 0.10 2.54
6:53 pm 18:53 Cloudy with Strong Thunderstorms 80 26.7 73 22.8 79 79 SSE 8 13 29.94 1014 2 3 0.17 4.32
6:58 pm 18:58 Cloudy with Thunderstorms 80 26.7 73 22.8 79 79 SSE 9 15 29.91 1013 4 6 0.03 0.76
7:37 pm 19:37 Cloudy with Nearby Thunderstorms 79 26.1 74 23.3 85 85 SSE 9 15 29.91 1013 7 11 0.10 2.54
7:53 pm 19:53 Cloudy with Thunderstorms 79 26.1 74 23.3 85 85 S 10 17 29.95 1014 7 11 0.11 2.79
8:16 pm 20:16 Cloudy with Strong Thunderstorms 79 26.1 73 22.8 82 82 S 13 20 29.91 1013 6 10 0.05 1.27
8:40 pm 20:40 Cloudy with Light Rain 78 25.6 72 22.2 82 82 S 25 41 29.91 1013 9 14 0.11 2.79
8:53 pm 20:53 Cloudy with Light Rain 79 26.1 71 21.7 77 77 S 24 39 29.89 1012 10 16 0.11 2.79
9:53 pm 21:53 Cloudy 80 26.7 72 22.2 76 76 SW 12 19 29.91 1013 10 16 0.00 0.03
10:53 pm 22:53 Cloudy 79 26.1 72 22.2 79 79 SSW 9 15 29.93 1013 10 16 0.00 0.00
11:53 pm 23:53 Cloudy 78 25.6 72 22.2 82 82 W 7 11 29.96 1015 10 16 0.00 0.00

Powered by AerisWeather